Weather History for Shreveport, LA

Change the Weather History Date:

Monday, November 19, 2012

  Actual Average Record
Temperature  
Mean Temperature 58 °F 55 °F  
Max Temperature 72 °F 66 °F 83 °F (1950)
Min Temperature 44 °F 44 °F 20 °F (1903)
Degree Days  
Heating Degree Days 7 10  
Month to date heating degree days 147 149  
Since 1 July heating degree days 249 235  
Cooling Degree Days 0 1  
Month to date cooling degree days 17 23  
Year to date cooling degree days 2933 2472  
Growing Degree Days 8 (Base 50)    
Moisture  
Dew Point 43 °F    
Average Humidity 62    
Maximum Humidity 89    
Minimum Humidity 34    
Precipitation  
Precipitation 0.00 in 0.15 in 2.70 in (1907)
Month to date precipitation 0.67 2.91  
Year to date precipitation 45.84 45.02  
Snow  
Snow 0.00 in - - ()
Month to date snowfall 0.0  
Since 1 July snowfall 0.0  
Since 1 September snowfall 0.0  
Snow Depth 0.00 in    
Sea Level Pressure  
Sea Level Pressure 30.23 in    
Wind  
Wind Speed 1 mph (SSE)    
Max Wind Speed 8 mph    
Max Gust Speed 10 mph    
Visibility 10 miles    
Events      
T = Trace of Precipitation, MM = Missing Value Source: NWS Daily Summary

Daily Weather History Graph

Daily Weather History Graph

Search for Another Location

Airport:

Trip Planner

Search our weather history database for the weather conditions in past years. The results will help you decide how hot, cold, wet, or windy it might be!

Date:

Astronomy

Nov. 19, 2012 Rise Set
Actual Time 6:48 AM CST 5:12 PM CST
Civil Twilight 6:22 AM CST 5:38 PM CST
Nautical Twilight 5:52 AM CST 6:08 PM CST
Astronomical Twilight 5:23 AM CST 6:37 PM CST
Moon 11:59 AM CST (11/19) 11:31 PM CST (11/19)
Length of Visible Light 11h 16m
Length of Day
10h 23m
Waxing Crescent, 41% of the Moon is Illuminated
Nov 19
Waxing Crescent
Nov 20
First Quarter
Nov 28
Full
Dec 6
Last Quarter
Dec 13
New

Hourly Weather History & Observations

Time (CST) Temp. Windchill Dew Point Humidity Pressure Visibility Wind Dir Wind Speed Gust Speed Precip Events Conditions
12:56 AM 48.0 °F - 41.0 °F 77% 30.26 in 10.0 mi ESE 3.5 mph - N/A   Mostly Cloudy
1:56 AM 46.9 °F - 42.1 °F 83% 30.27 in 10.0 mi Calm Calm - N/A   Mostly Cloudy
2:56 AM 48.0 °F - 42.1 °F 80% 30.26 in 10.0 mi Calm Calm - N/A   Mostly Cloudy
3:56 AM 46.9 °F - 42.1 °F 83% 30.26 in 10.0 mi Calm Calm - N/A   Mostly Cloudy
4:56 AM 46.9 °F - 41.0 °F 80% 30.26 in 10.0 mi Calm Calm - N/A   Mostly Cloudy
5:56 AM 46.4 °F 45.2 °F 42.8 °F 87% 30.25 in 10.0 mi ESE 3.5 mph - N/A   Mostly Cloudy
6:56 AM 46.9 °F - 41.0 °F 80% 30.27 in 10.0 mi Calm Calm - N/A   Mostly Cloudy
7:56 AM 48.0 °F - 43.0 °F 83% 30.28 in 10.0 mi Calm Calm - N/A   Mostly Cloudy
8:56 AM 55.9 °F - 41.0 °F 57% 30.28 in 10.0 mi Calm Calm - N/A   Mostly Cloudy
9:56 AM 57.9 °F - 42.1 °F 56% 30.30 in 10.0 mi SW 3.5 mph - N/A   Mostly Cloudy
10:56 AM 62.1 °F - 44.1 °F 52% 30.27 in 10.0 mi Variable 4.6 mph - N/A   Mostly Cloudy
11:56 AM 66.9 °F - 43.0 °F 42% 30.25 in 10.0 mi Variable 4.6 mph - N/A   Scattered Clouds
12:56 PM 70.0 °F - 42.1 °F 36% 30.22 in 10.0 mi Variable 4.6 mph - N/A   Scattered Clouds
1:56 PM 72.0 °F - 42.1 °F 34% 30.19 in 10.0 mi SE 3.5 mph - N/A   Partly Cloudy
2:56 PM 71.1 °F - 41.0 °F 34% 30.18 in 10.0 mi Calm Calm - N/A   Mostly Cloudy
3:56 PM 70.0 °F - 41.0 °F 35% 30.18 in 10.0 mi South 3.5 mph - N/A   Mostly Cloudy
4:56 PM 64.9 °F - 44.1 °F 47% 30.17 in 10.0 mi Calm Calm - N/A   Scattered Clouds
5:56 PM 62.1 °F - 45.0 °F 53% 30.19 in 10.0 mi Calm Calm - N/A   Scattered Clouds
6:56 PM 55.0 °F - 46.0 °F 72% 30.19 in 10.0 mi Calm Calm - N/A   Scattered Clouds
7:56 PM 55.0 °F - 45.0 °F 69% 30.20 in 10.0 mi Calm Calm - N/A   Scattered Clouds
8:56 PM 53.1 °F - 46.0 °F 77% 30.20 in 10.0 mi Calm Calm - N/A   Overcast
9:56 PM 53.1 °F - 46.0 °F 77% 30.19 in 10.0 mi Calm Calm - N/A   Overcast
10:56 PM 54.0 °F - 46.9 °F 77% 30.18 in 10.0 mi Calm Calm - N/A   Overcast
11:56 PM 53.1 °F - 46.9 °F 80% 30.17 in 10.0 mi Calm Calm - N/A   Mostly Cloudy